Location: Unspecified
(0.0000°N, 0.0000°E)
Time: 09:12:45
(UTC+00:00)

deb Explorer IX - Pass Details

Date: 19 December 2018
Orbit: 536 x 1116 km, 38.8° (Epoch: 22 March)

Event Time Altitude Azimuth Distance (km) Brightness Sun altitude
Rises 10:59:15 0° 202° (SSW) 3,887 ? 62.7°
Reaches altitude 10° 11:03:15 10° 183° (S) 2,860 ? 63.2°
Maximum altitude 11:07:28 17° 145° (SE) 2,301 ? 63.7°
Drops below altitude 10° 11:11:24 10° 107° (ESE) 2,641 ? 64.1°
Sets 11:14:51 0° 87° (E) 3,462 ? 64.4°
